Location: Bremen
(53.0793°N, 8.8017°E)
Time: 22:16:05
(UTC+02:00)

Tiros 1 - Pass Details

Date: 19 April 2024
Orbit: 624 x 657 km, 48.4° (Epoch: 21 May)

Event Time Altitude Azimuth Distance (km) Brightness Sun altitude
Rises 01:43:52 0° 206° (SSW) 2,920 - -25.5°
Reaches altitude 10° 01:46:50 10° 187° (S) 2,008 - -25.5°
Maximum altitude 01:49:52 18° 146° (SE) 1,565 - -25.4°
Drops below altitude 10° 01:52:55 10° 104° (ESE) 2,003 - -25.3°
Exits shadow 01:53:35 - 98° (E) 2,183 9.9 -25.3°
Sets 01:55:52 0° 85° (E) 2,910 10.7 -25.3°
